Regional Weather Roundup
Issued by NWS

Home | Current Version | Previous Version | Graphics & Text | Print | Product List | Glossary On
Versions: 1 2 3 4 5 6 7 8 9 10 11 12 13 14 15 16 17 18 19 20 21 22 23 24 25 26 27 28 29 30 31 32 33 34 35 36 37 38 39 40 41 42 43 44 45 46 47 48 49 50
000
ASUS45 KBOU 291810
RWRCO

WEATHER ROUNDUP FOR COLORADO
NATIONAL WEATHER SERVICE DENVER/BOULDER CO
1200 PM MDT WED JUL 29 2015

NOTE: "FAIR" INDICATES FEW OR NO CLOUDS BELOW 12000 FEET WITH NO
SIGNIFICANT WEATHER AND/OR OBSTRUCTIONS TO VISIBILITY.

COZ001>005-013-030-031-291900-
...NORTHWEST COLORADO...

CITY           SKY/WX    TMP DP  RH WIND       PRES   REMARKS
CRAIG          SUNNY     75  27  17 CALM      30.38S
HAYDEN         SUNNY     72  28  20 W7        30.39S
MEEKER         SUNNY     76  33  21 VRB5      30.38S
MOUNT WERNER   NOT AVBL
STEAMBOAT SPGS SUNNY     71  35  27 CALM      30.40S
WALDEN         SUNNY     70  32  24 SW3       30.46S
$$

COZ006>008-011-291900-
...WEST CENTRAL VALLEYS...

CITY           SKY/WX    TMP DP  RH WIND       PRES   REMARKS
GRAND JUNCTION SUNNY     83  34  17 S8        30.26S
MONTROSE       SUNNY     81  37  20 VRB5      30.32F
EAGLE          NOT AVBL
RIFLE          SUNNY     81  34  18 MISG      30.30F
DELTA          SUNNY     83  34  17 SW6       30.29F
NUCLA          SUNNY     81  34  18 NW5       30.35S
$$

COZ017>023-064>068-291900-
...SOUTHWEST COLORADO...

CITY           SKY/WX    TMP DP  RH WIND       PRES   REMARKS
DURANGO        PTSUNNY   78  44  29 SE7       30.36S
CORTEZ         SUNNY     85  37  18 W3        30.29S
PAGOSA SPRINGS PTSUNNY   72  44  36 SE3       30.45S
TELLURIDE      SUNNY     73  26  17 NW7       30.55S
WOLF CREEK PAS NOT AVBL
$$

COZ009-010-012-014-032>034-037-058>063-291900-
...CENTRAL COLORADO...

CITY           SKY/WX    TMP DP  RH WIND       PRES   REMARKS
ASPEN          SUNNY     75  38  26 N6        30.44F
BUENA VISTA    MOSUNNY   73  41  31 SE6       30.45F
COPPER MTN     SUNNY     59  19  21 W22G31    30.75F
BERTHOUD PASS  FAIR      50  41  71 W14       30.80S
COTTONWOOD PAS MOSUNNY   70  36  28 SE7       30.59F
GUNNISON       SUNNY     73  43  33 W5        30.46S
KREMMLING      SUNNY     77  30  18 S3        30.43F
LEADVILLE      SUNNY     68  26  20 NW13      30.57S
MONARCH PASS   SUNNY     61  32  33 W7G21     30.85S
SALIDA         PTSUNNY   74  47  38 E13G18    30.49F
SUNLIGHT       SUNNY     63  34  34 SW3       30.70S
WILKERSON PASS SUNNY     61  36  39 W3        30.73F
$$

COZ069>075-291900-
...SAN LUIS VALLEY/SANGRE DE CRISTO MOUNTAINS...

CITY           SKY/WX    TMP DP  RH WIND       PRES   REMARKS
ALAMOSA        PTSUNNY   76  46  34 S8        30.41S
LA VETA PASS   PTSUNNY   61  45  55 MISG      30.64S
SAGUACHE       SUNNY     72  46  40 S8        30.45F
$$

COZ035-036-038>040-291900-
...NORTHERN COLORADO FRONT RANGE...

CITY           SKY/WX    TMP DP  RH WIND       PRES   REMARKS
DENVER INTL AP MOSUNNY   82  48  30 SE17G25   30.31F
DMNS CITY PARK   N/A     80  48  32 E10G21    30.30S
AURORA         MOSUNNY   80  52  37 SE16G25   30.32F
FRONT RANGE AP MOSUNNY   79  45  29 SE21G29   30.34S
ERIE MUNI ARPT SUNNY     78  43  28 SE3       30.30F
BOULDER MUN AP SUNNY     75  45  33 E8        30.32R
CENTENNIAL     MOSUNNY   80  49  33 S14       30.33F
BROOMFIELD     MOSUNNY   77  45  31 E5        30.34S
FORT COLLINS   SUNNY     75  48  38 SE3       30.31S
LONGMONT       SUNNY     79  45  30 CALM      30.32S
$$

COZ041-046-047-076>085-087-088-291900-
...PIKES PEAK/PALMER DIVIDE AND SOUTHERN FOOTHILLS...

CITY           SKY/WX    TMP DP  RH WIND       PRES   REMARKS
COLO. SPRINGS  PTSUNNY   71  48  43 SE20G28   30.43S
A. F. ACADEMY  PTSUNNY   70  50  48 SE21      30.42S
ELLICOTT       PTSUNNY  N/A N/A N/A S17G24    30.42S
FALCON         PTSUNNY   68  46  46 S15G21    30.47S
FORT CARSON    CLOUDY    70  52  53 SE16      30.40S
LIMON          SUNNY     70  53  54 S16G26    30.39F
MONUMENT HILL  SUNNY     68  50  52 S23       30.44F
TRINIDAD       MOSUNNY   78  51  38 VRB6      30.36F
$$

COZ042>045-048>051-090-091-291900-
...NORTHEAST COLORADO...

CITY           SKY/WX    TMP DP  RH WIND       PRES   REMARKS
GREELEY ARPT   SUNNY     82  52  34 SW10      30.28F
AKRON          SUNNY     76  45  33 SE24      30.34S
BURLINGTON     PTSUNNY   72  45  37 SE17      30.35F
WRAY           MOSUNNY   79  48  33 SE16      30.32F
STERLING       SUNNY     81  46  30 S15       30.28S
HOLYOKE        MOSUNNY   79  50  36 SE14G20   30.31F
FORT MORGAN    SUNNY     81  42  24 SE16      30.30F
$$

COZ086-089-092>099-291900-
...SOUTHEAST COLORADO...

CITY           SKY/WX    TMP DP  RH WIND       PRES   REMARKS
PUEBLO         SUNNY     81  51  35 SE15G25   30.32F
LA JUNTA       MOSUNNY   81  45  28 MISG      30.31F
LAMAR          MOSUNNY   79  48  33 E10       30.30S
SPRINGFIELD      N/A     73  50  44 VRB6      30.33F
$$


USA.gov is the U.S. government's official web portal to all federal, state and local government web resources and services.